Regional Weather Roundup
Issued by NWS San Angelo, TX

Home | Current Version | Previous Version | Text Only | Print | Product List | Glossary On
Versions: 1 2 3 4 5 6 7 8 9 10 11 12 13 14 15 16 17 18 19 20 21 22 23 24 25 26 27 28 29 30 31 32 33 34 35 36 37 38 39 40 41 42 43 44 45 46 47 48 49 50
000
ASUS44 KSJT 271710
RWRSJT
WEST CENTRAL TEXAS REGIONAL WEATHER ROUNDUP
NATIONAL WEATHER SERVICE SAN ANGELO TX
1200 PM CDT MON APR 27 2015

NOTE: "FAIR" INDICATES FEW OR NO CLOUDS BELOW 12,000 FEET WITH NO
SIGNIFICANT WEATHER AND/OR OBSTRUCTIONS TO VISIBILITY.

TXZ049-054-064>066-071>073-076>078-098-099-113-114-127-128-139-140-
154-155-168>170-271800
...LOCATIONS ACROSS WEST CENTRAL TEXAS...

CITY           SKY/WX    TMP DP  RH WIND       PRES   REMARKS
SAN ANGELO     MOSUNNY   74  46  36 NW8       29.78F
ABILENE        PTSUNNY   68  54  60 NW12G18   29.80S
DYESS AFB      PTSUNNY   64  55  73 NW10      29.79R
JUNCTION       MOSUNNY   76  46  34 W8        29.77F
SWEETWATER     MOSUNNY   63  53  68 W10       29.84S
BROWNWOOD      PTSUNNY   68  57  68 NW5       29.78F
COLEMAN        PTSUNNY   68  59  71 CALM      29.79F
SONORA         SUNNY     73  39  29 W7G16     29.83F
OZONA          FAIR      73  34  23 NW14G20   29.83S
BRADY          MOSUNNY   73  54  49 NW10      29.77F
$$

TEXAS PANHANDLE/OKLAHOMA PANHANDLE

CITY           SKY/WX    TMP DP  RH WIND       PRES   REMARKS
AMARILLO       LGT RAIN  43  41  93 N28G35    29.92R WCI  33
BORGER         RAIN      44  42  93 NE21G29   29.96R FOG     WCI  36
CANADIAN       RAIN      46  45  97 NE8       29.96R
DALHART        LGT RAIN  41  37  86 N28G40    30.03S FOG     WCI  30
DUMAS          LGT RAIN  40  39  97 N26G32    29.98S WCI  29
GUYMON         NOT AVBL
HEREFORD       RAIN      43  42  97 MISG      29.94R
PAMPA          LGT RAIN  42  40  95 NE25G31   29.93F WCI  32
PERRYTON       CLOUDY    42  41  95 NE32      29.98R WCI  31
$$

SOUTHERN PANHANDLE/SOUTH PLAINS/ROLLING PLAINS

CITY           SKY/WX    TMP DP  RH WIND       PRES   REMARKS
LUBBOCK        LGT RAIN  50  47  89 N18G24    29.86R FOG
SNYDER         MOSUNNY   60  51  72 NW7       29.83S
CHILDRESS      CLOUDY    56  49  77 N10       29.81R
SEMINOLE       CLOUDY    58  44  58 N15       29.89S
$$

PERMIAN BASIN

CITY           SKY/WX    TMP DP  RH WIND       PRES   REMARKS
MIDLAND        MOSUNNY   67  46  47 NW9       29.84S
ODESSA         PTSUNNY   68  44  42 NW12G18   29.85S
WINK           PTSUNNY   67  40  37 NW13      29.86S
$$

FAR WEST/SOUTHWEST MOUNTAINS/TRANS PECOS

CITY           SKY/WX    TMP DP  RH WIND       PRES   REMARKS
ALPINE         SUNNY     65  31  28 W16G28    29.96S
DRYDEN           N/A     78  30  17 W16G24    29.80S
EL PASO        PTSUNNY   60  39  45 NW8       29.94S
FORT STOCKTON  SUNNY     67  38  34 NW10G21   29.88R
GUADALUPE PASS CLOUDY    54  37  52 VRB3      29.97R
MARFA          MOSUNNY   63  30  29 W20G26    29.95S
PECOS          SUNNY     67  40  36 NW15      29.88S
$$

DALLAS/FORT WORTH METROPLEX

CITY           SKY/WX    TMP DP  RH WIND       PRES   REMARKS
DFW AIRPORT    PTSUNNY   69  58  67 E12G18    29.75R
FTW MEACHAM    CLOUDY    69  59  70 SE9       29.76R
DAL-EXECUTIVE  PTSUNNY   69  58  67 E20G25    29.74R
GRAND PRAIRIE  PTSUNNY   68  57  68 E12       29.77R
ADDISON        NOT AVBL
MESQUITE       PTSUNNY   70  59  68 E14       29.74S
LANCASTER      PTSUNNY   66  57  72 E14G20    29.75R
$$

NORTH CENTRAL TEXAS

CITY           SKY/WX    TMP DP  RH WIND       PRES   REMARKS
SHRMAN/DENISON PTSUNNY   64  58  81 E14G24    29.79R
GAINESVILLE    CLOUDY    58  53  86 E10       29.84R
BRIDGEPORT     PTSUNNY   65  60  82 SE7       29.79F
DENTON         CLOUDY    63  57  81 NE7       29.78R
WAXAHACHIE     PTSUNNY   68  62  80 CALM      29.75R
GRANBURY       PTSUNNY   71  60  67 E5        29.77S
$$

WESTERN NORTH TEXAS

CITY           SKY/WX    TMP DP  RH WIND       PRES   REMARKS
WICHITA FALLS  HVY RAIN  59  56  89 SE12      29.77S FOG
VERNON         CLOUDY    58  55  87 N16       29.80R
BRECKENRIDGE   PTSUNNY   68  58  70 NW9       29.78S HAZE
COMANCHE       PTSUNNY   66  62  88 W9        29.77S
$$

CENTRAL AND SOUTH CENTRAL TEXAS

CITY           SKY/WX    TMP DP  RH WIND       PRES   REMARKS
AUSTIN/BERGSTM MOSUNNY   73  65  75 CALM      29.71S
WACO           PTSUNNY   74  64  71 SE8       29.71S
HILLSBORO      PTSUNNY   71  61  70 E12G18    29.72R
TEMPLE         MOSUNNY   73  61  64 S5        29.71S
KILLEEN-GRAY   CLOUDY    72  63  73 VRB5      29.72S
FORT HOOD      MOSUNNY   72  61  68 SE3       29.72S
GEORGETOWN     CLOUDY    72  61  68 CALM      29.72R
LAGO VISTA     PTSUNNY   71  62  73 CALM      29.75R
SAN MARCOS     PTSUNNY   75  64  69 NE5       29.73R
NEW BRAUNFELS  MOSUNNY   76  65  68 VRB6      29.71R
RANDOLPH AFB   SUNNY     75  64  68 NE3       29.72S
SAN ANTONIO    MOSUNNY   77  64  64 CALM      29.73R
STINSON        SUNNY     78  63  59 NE3       29.70S
PLEASANTON     NOT AVBL
LA GRANGE      SUNNY     76  69  78 S3        29.68F
GIDDINGS       SUNNY     74  65  71 CALM      29.73F
$$

EAST TEXAS

CITY           SKY/WX    TMP DP  RH WIND       PRES   REMARKS
PARIS          MOSUNNY   64  52  63 MISG      29.80F
CLARKSVILLE    NOT AVBL
TYLER          MOSUNNY   69  58  67 E20G26    29.73F
LONGVIEW       PTSUNNY   65  56  72 E14       29.76S
PALESTINE      MOSUNNY  N/A N/A N/A E16       29.72S
NACOGDOCHES    MOSUNNY   70  61  73 E7        29.72S
$$

TEXAS HILL COUNTRY AND EDWARDS PLATEAU

CITY           SKY/WX    TMP DP  RH WIND       PRES   REMARKS
LLANO          PTSUNNY   72  61  68 N8        29.79F
HORSESHOE BAY  CLOUDY    70  62  77 NW9       29.76S
KERRVILLE      MOSUNNY   76  57  51 NW9       29.76S
FREDERICKSBRG  MOSUNNY   71  60  68 NW10      29.77S
ROCKSPRINGS    MOSUNNY   73  41  31 NW14      29.81F
HONDO          SUNNY     81  59  47 NW10      29.75R
UVALDE         MOSUNNY   78  49  36 NW15      29.76S
DEL RIO        SUNNY     81  37  20 W17       29.75F
$$

SOUTHEAST TEXAS

CITY           SKY/WX    TMP DP  RH WIND       PRES   REMARKS
COLLEGE STN    MOSUNNY   75  65  70 S6        29.69R
CALDWELL       SUNNY     73  68  83 S5        29.72F
CROCKETT       NOT AVBL
BRENHAM        SUNNY     78  68  71 CALM      29.69S
HUNTSVILLE     MOSUNNY   76  65  68 E5        29.69R
CONROE         PTSUNNY   75  64  68 E7        29.70R
HOUSTON BUSH   CLOUDY    76  65  68 E8        29.68R
HOUSTON HOBBY  CLOUDY    75  65  70 E7        29.68R
PERLAND        CLOUDY    76  66  71 E9        29.69R
WHARTON        CLOUDY    72  65  79 NE6       29.69F
$$

THE UPPER TEXAS COAST

CITY           SKY/WX    TMP DP  RH WIND       PRES   REMARKS
ORANGE         CLOUDY    70  59  69 NE16G22   29.73R
PORT ARTHUR    PTSUNNY   70  62  76 E20       29.71R
GALVESTON      PTSUNNY   75  68  78 E18G25    29.66F
ANGLETON       CLOUDY    74  67  78 NE12      29.66R
BAY CITY       CLOUDY    76  71  86 N6        29.68R
$$

TEXAS COASTAL BEND, RIO GRANDE PLAINS DEEP SOUTH TEXAS

CITY           SKY/WX    TMP DP  RH WIND       PRES   REMARKS
VICTORIA       MOSUNNY   79  71  76 NE12      29.68S
BEEVILLE       FAIR      78  67  66 N7        29.70R
ROCKPORT       PTSUNNY   82  73  74 N8        29.66R
PORT ARANSAS   CLOUDY    78  73  86 N13       29.66R
PORT LAVACA    CLOUDY    74  70  87 N9        29.67S
CORPUS CHRISTI CLOUDY    80  68  66 NW14      29.67R
KINGSVILLE NAS PTSUNNY   80  68  66 N16       29.68R
COTULLA        SUNNY     83  51  33 NW16      29.73R
LAREDO         PTSUNNY   82  50  32 NW13      29.76S
BROWNSVILLE    CLOUDY    82  74  76 NW18G26   29.64R
PORT ISABEL    LGT RAIN  82  72  71 NW18      29.64R
HEBBRONVILLE     N/A     79  55  43 NW14      29.73S
MCALLEN        PTSUNNY   82  65  56 NW13G23   29.69R
WESLACO        PTSUNNY   81  69  67 N14G22    29.67S
FALFURRIAS     CLOUDY    79  63  58 NW9G16    29.69R
EDINBURG       PTSUNNY   81  65  57 NW12      29.69R
$$



USA.gov is the U.S. government's official web portal to all federal, state and local government web resources and services.